Погода в Муслюмове

Россия / Челябинская область     55°36′17″N   61°37′31″E
темп.,
°C
ветер,
м/с
пор.,
м/с
влажн.,
%
обл.,
%
осадки,
мм/ч
давл.,
гПа
погр.,
м
13 апреля, вт
вт1323:00+6ссз228485 0.0 103912
02:00+4ссв36932 0.0 1040107
05:00+3св22931 0.0 104126
08:00+4всв129799 0.0 104270
11:00+8ю238613 0.0 1041327
14:00+12ююз447439 0.0 1040854
17:00+12ююз456911 0.0 1038877
20:00+9ю47830 0.0 1037107
14 апреля, ср
ср1423:00+8ююз411875 0.0 1036186
02:00+7ююз4118819 0.0 1035197
05:00+6юз479199 0.0 1035123
08:00+8зюз3590100 0.0 1034132
11:00+13з357741 0.0 1033497
14:00+16з44655 0.0 1031831
17:00+17зюз346030 0.0 1029926
20:00+14юз227430 0.0 102912
15 апреля, чт
чт1523:00+12зюз338559 0.0 102926
02:00+10юз228423 0.0 102817
05:00+8юз22765 0.0 102715
08:00+10юз24685 0.0 1026110
11:00+15юз22595 0.0 1025352
14:00+18юз33565 0.0 1023823
17:00+19юз344926 0.0 10201143
20:00+14юз3463100 0.0 101949
16 апреля, пт
пт1623:00
02:00+9зсз3476100 0.0 101845
05:00+8зсз338240 0.0 101733
08:00+10зсз35795 0.0 1017157
11:00+13с456694 0.0 1016747
14:00+9ссв668188 0.0 1017594
17:00+7св7885100 0.0 1018592
20:00+4св5896100 0.1 1019742
17 апреля, сб
сб1723:00+3ссв6996100 0.2 1017569
02:00+3св4997100 0.6 1019493
05:00+2св468592 0.7 1020558
08:00+2св46775 0.0 1020457
11:00+5св34575 0.0 10191138
14:00+6ссв2246100 0.0 10171687
17:00+7юз344399 0.0 10151703
20:00+3сз61086100 2.1 1015959